Current weather by "City, St" or "zip code"  
 
Advertise Here

Current Conditions: Martinsville, VA

Partly Cloudy


74.0 F

Last Updated on Aug 4 2020, 5:55 pm EDT
Humidity: 87%
Wind Speed: N 0.0 mph
Barometer 29.97 in
Dewpoint: 69.8 F
Visibility: 10.00 mi
Precip: --
Heat Index: NA
Wind Chill: NA
Current conditions at:

Martinsville, VA (KMTV)

Lat: 36.63333 Lon: 80.01667

Local Radar Image active severe weather and emergency alerts image image weather storm and storm spotter reports image weather observation monitoring service image
Local
Radar
Active
Alerts
Storm Reports Obs
Monitoring

Sign-up For Email & Text Message Weather Alert Notification Services


Advertise Here

Observation History for Martinsville, VA


Time Wind
(mph)
Vis
(mi)
Weather Precip (in) Temperature (F) Relative
Humidity
Wind
Chill
(F)
Heat
Index
(F)
Pressure
Air Dwpt altimeter
(in)
sea level
(mb)
Rmks
5:55 pm EDT N 0.0 10.00 Partly Cloudy -- 74.0 69.8 87% NA NA 29.97 M
4:55 pm EDT W 4.6 10.00 Overcast -- 75.0 71.8 89% NA NA 29.96 M
3:55 pm EDT S 3.5 5.00 Light Rain 00.03 76.0 73.6 92% NA NA 29.97 M
2:55 pm EDT SW 4.6 10.00 Partly Cloudy -- 86.0 69.8 58% NA 90 29.97 M
1:55 pm EDT N 0.0 10.00 Mostly Cloudy -- 83.0 69.1 63% NA 87 29.97 M
12:55 pm EDT W 4.6 10.00 Partly Cloudy -- 83.0 70.9 66% NA 87 29.97 M
11:55 am EDT W 3.5 10.00 Fair -- 81.0 70.3 71% NA 85 29.97 M
10:55 am EDT SW 6.9 10.00 Fair -- 79.0 70.3 75% NA NA 29.97 M
9:55 am EDT SW 3.5 10.00 Fair -- 76.0 69.8 81% NA NA 29.96 M
8:55 am EDT SW 5.8 10.00 Fair -- 73.0 69.1 89% NA NA 29.95 M
7:55 am EDT N 0.0 10.00 Fair -- 69.0 68.7 100% NA NA 29.93 M
6:55 am EDT N 0.0 7.00 Fair -- 66.0 66.2 100% NA NA 29.90 M
5:55 am EDT N 0.0 10.00 Fair -- 67.0 67.1 100% NA NA 29.89 M
4:55 am EDT NW 4.6 10.00 Overcast -- 69.0 68.7 100% NA NA 29.87 M
3:55 am EDT NW 6.9 10.00 Overcast -- 69.0 68.5 100% NA NA 29.87 M
2:55 am EDT N 8.1 10.00 Overcast -- 69.0 68.5 100% NA NA 29.90 M
1:55 am EDT N 6.9 3.00 Drizzle -- 69.0 68.5 100% NA NA 29.95 M
12:55 am EDT NE 5.8 10.00 Overcast -- 69.0 68.9 100% NA NA 29.97 M
11:55 pm EDT N 5.8 10.00 Overcast -- 69.0 69.1 100% NA NA 30.00 M
10:55 pm EDT NE 3.5 10.00 Light Rain -- 69.0 69.4 100% NA NA 30.02 M
9:55 pm EDT N 3.5 10.00 Overcast -- 69.0 69.4 100% NA NA 30.04 M
8:55 pm EDT E 3.5 10.00 Overcast -- 70.0 70.0 100% NA NA 30.03 M
7:55 pm EDT N 0.0 10.00 Overcast -- 71.0 70.5 99% NA NA 30.03 M
6:55 pm EDT N 0.0 10.00 Overcast -- 71.0 70.7 100% NA NA 30.02 M

Regional Weather Observation


Hillsville, VA (KHLX)

Overcast
75.0 F

Mount Airy/Surry County Airport, NC (KMWK)

Fair
78.0 F

Virginia Tech Airport, VA (KBCB)

Overcast
77.0 F

Dublin / New River Valley, VA (KPSK)

Overcast
79.0 F

Reidsville, Rockingham County NC Shiloh Airport, NC (KSIF)

Light Rain
72.0 F

Winston Salem, Smith Reynolds Airport, NC (KINT)

Partly Cloudy
84.0 F